Location: Carri�res
(48.9069°N, 2.1792°E)
Time: 17:52:30
(UTC+00:00)

X-37B - Pass Details

Date: 10 December 2021
Orbit: 334 x 337 km, 45.0° (Epoch: 11 January)

Event Time Altitude Azimuth Distance (km) Brightness Sun altitude
Rises 16:38:31 0° 219° (SW) 2,096 5.7 -7.1°
Reaches altitude 10° 16:41:00 10° 196° (SSW) 1,263 3.8 -7.4°
Maximum altitude 16:42:49 16° 156° (SSE) 990 2.7 -7.7°
Drops below altitude 10° 16:44:39 10° 115° (ESE) 1,266 2.8 -8.0°
Enters shadow 16:45:33 - 104° (ESE) 1,537 3.2 -8.1°
